Location: Theydon Bois
(51.6750°N, 0.1050°E)
Time: 13:13:27
(UTC+01:00)

BREEZE M DEB (TANK) - Visible Passes

Search period start: 24 May 2018 00:00
Search period end: 03 June 2018 00:00
Orbit: 334 x 16172 km, 49.5° (Epoch: 24 May)

Date Brightness Start Highest point End Pass type
(mag) Time Alt. Az. Time Alt. Az. Time Alt. Az.
24 May 7.5 22:24:39 10° NW 00:10:00 34° W 00:43:15 10° SW visible
25 May 7.6 23:04:22 10° NW 00:34:45 28° WNW 01:08:21 10° SW visible
26 May 7.8 23:45:08 10° NW 00:58:33 22° WNW 01:31:42 10° WSW visible
28 May 8.1 00:28:03 10° NW 01:21:30 16° WNW 01:51:49 10° W visible
29 May 8.5 01:17:39 10° NW 01:43:39 12° NW 02:03:28 10° WNW visible
29 May 7.4 19:02:28 10° WNW 21:30:18 61° WSW 22:09:19 10° SSE visible
30 May 7.4 19:38:40 10° WNW 21:59:10 54° WSW 22:37:03 10° S visible
31 May 7.5 20:15:33 10° WNW 22:26:44 47° W 23:04:19 10° SSW visible
01 Jun 7.6 20:53:04 10° NW 22:53:06 40° W 23:30:58 10° SSW visible
02 Jun 7.8 21:31:13 10° NW 23:18:22 34° W 23:56:48 10° SW visible
